Location: Veytaux
(46.4185°N, 6.9320°E)
Time: 07:50:56
(UTC+00:00)

USA 308 - Pass Details

Date: 27 May 2022
Orbit: 549 x 558 km, 54.0° (Epoch: 14 June)

Event Time Altitude Azimuth Distance (km) Brightness Sun altitude
Exits shadow 00:36:50 56° 239° (WSW) 663 2.9 -20.6°
Maximum altitude 00:37:41 89° 326° (NW) 563 2.7 -20.6°
Drops below altitude 10° 00:41:53 10° 57° (ENE) 1,846 6.2 -20.4°
Sets 00:44:09 0° 58° (ENE) 2,750 7.2 -20.2°
